Home > Weather > Mosjøen > Past weeks

Flag for Norway Weather for the Past 2 Weeks in Mosjøen, Norway

Now
61 °F

Refreshingly cool.


Feels Like: 61 °F
Forecast: 39 / 49 °F
Wind: 6 mph from South

Location: Mosjoen Kjaerstad

Current Time: May 3, 2016 at 5:06:20 PM

Latest Report: May 3, 2016 at 4:00 PM


Visibility: N/A

Pressure: 29.87 "Hg

Humidity: 36%

Dew Point: 34 °F

Location of MosjøenLocation

Historic Weather in Mosjøen — Graph

°F

Mosjøen Temperature Yesterday

Maximum temperature yesterday: 54 °F (at 4:00 PM)
Minimum temperature yesterday: 48 °F (at 10:00 PM)
Average temperature yesterday: 52 °F

High & Low Weather Summary for the Past Weeks

 TemperatureHumidityPressure
High59 °F (May 3, 3:00 PM)94% (Apr 21, 10:00 PM)30.29 "Hg (Apr 21, 10:00 PM)
Low24 °F (Apr 25, 3:00 AM)28% (May 2, 4:00 PM)29.38 "Hg (Apr 18, 3:00 PM)
Average42 °F60%29.89 "Hg
* Reported Apr 18 3:00 PM — May 3 3:00 PM, Mosjøen, Weather by CustomWeather, © 2016

Note: Actual official high and low records may vary slightly from our data, if they occured in-between our weather recording intervals... More about our weather records

Advertising

Mosjøen Weather History for the Previous 24 Hours

Scroll right to see more
 ConditionsComfort  
Time TempWeatherWind HumidityBarometerVisibility
3:00 PM
Tue, May 3
59 °FRefreshingly cool.6 mph39%29.87 "HgN/A
2:00 PM58 °FRefreshingly cool.6 mph40%29.87 "HgN/A
12:00 PM57 °FRefreshingly cool.6 mph43%29.87 "HgN/A
11:00 AM54 °FCool.5 mph48%29.87 "HgN/A
10:00 AM55 °FCool.2 mph47%29.87 "HgN/A
9:00 AM51 °FCool.2 mph55%29.87 "HgN/A
8:00 AM49 °FCool.2 mph59%29.87 "HgN/A
6:00 AM45 °FQuite cool.1 mph71%29.87 "HgN/A
5:00 AM45 °FQuite cool.2 mph68%29.86 "HgN/A
3:00 AM44 °FQuite cool.1 mph69%29.85 "HgN/A
2:00 AM46 °FCool.3 mph63%29.85 "HgN/A
1:00 AM47 °FCool.1 mph61%29.86 "HgN/A
12:00 AM47 °FCool.1 mph62%29.85 "HgN/A
10:00 PM
Mon, May 2
48 °FCool.1 mph56%29.86 "HgN/A
9:00 PM50 °FCool.1 mph47%29.87 "HgN/A
8:00 PM51 °FCool.5 mph45%29.87 "HgN/A
7:00 PM52 °FCool.6 mph41%29.87 "HgN/A
6:00 PM53 °FCool.7 mph32%29.89 "HgN/A
5:00 PM53 °FCool.8 mph31%29.89 "HgN/A
Weather by CustomWeather, © 2016

See weather overviewHow to use our weather pages